User: anonymous   Login
Location: Heilwood
(40.6210°N, 78.9150°W)
Time: 11:24:39
(UTC-04:00)
Language:

Iridium 4 Rocket - Orbit

View from above orbital plane
View from above orbital plane
View from above satellite
View from above satellite

Ground track
Ground track

The orbit data is extracted from the following two-line orbital elements,

1 24797U 97020F   15211.38410133  .00000314  00000-0  60952-4 0  9994
2 24797 086.8937 245.1471 0228698 090.1519 025.8336 14.43665870958706
Epoch (UTC): 30 July 2015 09:13:06
Eccentricity: 0.0228698
inclination: 86.8937°
perigee height: 583 km
apogee height: 909 km
right ascension of ascending node: 245.1471°
argument of perigee: 90.1519°
revolutions per day: 14.43665870
mean anomaly at epoch: 25.8336°
orbit number at epoch: 95870

The dashed part of the orbit path shows where the satellite is in the earth's shadow,  

DLR